Flag for India Weather past 2 weeks in Chennai, Tamil Nadu, India

Now
86 °F

Broken clouds.


Feels Like: 91 °F
Forecast: 78 / 88 °F
Wind: 6 mph from Southwest

Location: Madras / Minambakkam

Current Time: Aug 28, 2014 at 7:02:25 PM

Latest Report: Aug 28, 2014 at 6:10 PM


Visibility: 4 mi

Pressure: 29.59 "Hg

Humidity: 59%

Dew point: 70 °F

Location of ChennaiLocation

Historic Weather in Chennai — Graph

°F

Chennai temperature yesterday

Maximum temperature yesterday: 88 °F (at 1:10 PM)
Minimum temperature yesterday: 79 °F (at 6:10 AM)
Average temperature yesterday: 83 °F

Past Weeks' High & Low Weather Summary

 TemperatureHumidityPressure
High99 °F (Aug 23, 4:40 AM)94% (Aug 16, 3:40 AM)29.86 "Hg (Aug 16, 3:40 AM)
Low75 °F (Aug 25, 12:10 AM)44% (Aug 14, 2:40 PM)29.59 "Hg (Aug 21, 3:40 PM)
Average85 °F73%29.71 "Hg
* Reported Aug 13 5:40 PM — Aug 28 5:40 PM, Chennai, Weather by CustomWeather, © 2014

Note: Actual official high and low records may vary slightly from our data, if they occured in-between our weather recording intervals... More about our weather records

Advertising

Chennai weather history for previous 24 hours

 ConditionsComfort  
Time TempWeatherWind HumidityBarometerVisibility
5:40 PM
Aug 28
88 °FBroken clouds.7 mph55%29.59 "Hg4 mi
5:10 PM88 °FBroken clouds.8 mph55%29.59 "Hg4 mi
4:40 PM88 °FBroken clouds.5 mph55%29.59 "Hg4 mi
4:10 PM90 °FBroken clouds.8 mph55%29.59 "Hg4 mi
3:40 PM90 °FBroken clouds.9 mph55%29.59 "Hg4 mi
3:10 PM90 °FBroken clouds.9 mph55%29.59 "Hg4 mi
2:40 PM88 °FBroken clouds.6 mph62%29.62 "Hg4 mi
2:10 PM86 °FBroken clouds.5 mph70%29.62 "Hg4 mi
1:40 PM86 °FBroken clouds.9 mph70%29.62 "Hg4 mi
1:10 PM88 °FScattered clouds.7 mph62%29.65 "Hg4 mi
12:40 PM86 °FDrizzle. Broken clouds.8 mph66%29.65 "Hg4 mi
12:10 PM90 °FScattered clouds.12 mph59%29.65 "Hg5 mi
11:40 AM90 °FScattered clouds.16 mph59%29.68 "Hg5 mi
11:10 AM90 °FScattered clouds.12 mph59%29.68 "Hg5 mi
10:40 AM88 °FScattered clouds.12 mph62%29.68 "Hg5 mi
9:40 AM84 °FBroken clouds.14 mph70%29.71 "Hg4 mi
9:10 AM84 °FBroken clouds.10 mph70%29.71 "Hg4 mi
8:40 AM82 °FBroken clouds.8 mph74%29.71 "Hg4 mi
8:10 AM82 °FBroken clouds.10 mph70%29.71 "Hg4 mi
7:40 AM81 °FBroken clouds.9 mph74%29.71 "Hg4 mi
7:10 AM81 °FScattered clouds.9 mph74%29.68 "Hg4 mi
6:40 AM81 °FScattered clouds.8 mph74%29.68 "Hg4 mi
6:10 AM81 °FPassing clouds.7 mph79%29.65 "Hg3 mi
5:40 AM79 °FPartly cloudy.9 mph84%29.65 "Hg3 mi
5:10 AM79 °FPartly cloudy.8 mph84%29.65 "Hg3 mi
4:40 AM79 °FPartly cloudy.7 mph84%29.65 "Hg3 mi
4:10 AM81 °FPartly cloudy.7 mph84%29.62 "Hg3 mi
3:40 AM81 °FPartly cloudy.9 mph84%29.62 "Hg3 mi
3:10 AM81 °FPartly cloudy.9 mph84%29.65 "Hg3 mi
2:40 AM81 °FPartly cloudy.6 mph79%29.65 "Hg3 mi
2:10 AM81 °FPartly cloudy.5 mph79%29.65 "Hg3 mi
1:40 AM81 °FPassing clouds.No wind79%29.68 "Hg3 mi
1:10 AM81 °FPassing clouds.No wind79%29.68 "Hg3 mi
12:40 AM81 °FPassing clouds.No wind79%29.68 "Hg3 mi
12:10 AM81 °FPassing clouds.No wind79%29.68 "Hg3 mi
11:10 PM
Aug 27
81 °FPassing clouds.3 mph79%29.71 "Hg3 mi
10:40 PM81 °FPartly cloudy.3 mph79%29.71 "Hg3 mi
9:40 PM81 °FPartly cloudy.2 mph74%29.71 "Hg3 mi
7:40 PM81 °FPartly cloudy.No wind74%29.68 "Hg3 mi
7:10 PM81 °FMostly cloudy.No wind74%29.65 "Hg3 mi
Weather by CustomWeather, © 2014

See weather overviewHow to use our weather pages